MAKIL Weather Reports


Display with metric or nautical units.
time (UTC)temp
F
wind
direction
speed
MPH
gust
MPH
rain 1hr
in
rain 24hr
in
rain mn
in
humidity
%
barometer
mb
20260508104730 46 220 11.0 14.0 0.00 0.00 0.00 65
20260508102729 48 214 12.0 15.0 0.00 0.00 0.00 62
20260508100730 46 219 10.0 13.0 0.00 0.00 0.00 65
20260508094730 48 208 11.0 13.0 0.00 0.00 0.00 57
20260508092730 49 204 10.0 14.0 0.00 0.00 0.00 53
20260508090730 48 201 9.0 12.0 0.00 0.00 0.00 56
20260508084730 49 201 8.0 11.0 0.00 0.00 0.00 54
20260508082729 48 189 7.0 9.0 0.00 0.00 0.00 53
20260508080730 47 168 6.0 9.0 0.00 0.00 0.00 61
20260508074730 50 41 7.0 11.0 0.00 0.00 0.00 48
20260508072729 49 339 8.0 11.0 0.00 0.00 0.00 60
20260508070730 47 305 4.0 6.0 0.00 0.00 0.00 63
20260508064729 47 312 7.0 8.0 0.00 0.00 0.00 61
20260508062729 45 308 7.0 8.0 0.00 0.00 0.00 62
20260508054729 44 318 7.0 8.0 0.00 0.00 0.00 62
20260508052730 45 328 8.0 9.0 0.00 0.00 0.00 60
20260508050729 44 342 9.0 10.0 0.00 0.00 0.00 60
20260508044730 46 5 8.0 10.0 0.00 0.00 0.00 56
20260508042729 45 2 8.0 10.0 0.00 0.00 0.00 56
20260508040729 44 9 11.0 13.0 0.00 0.00 0.00 58
20260508034729 44 8 11.0 13.0 0.00 0.00 0.00 60
20260508032729 43 10 10.0 13.0 0.00 0.00 0.00 61
20260508030729 42 7 10.0 12.0 0.00 0.00 0.00 63
20260508024728 41 3 11.0 13.0 0.00 0.00 0.00 62
20260508022728 39 2 10.0 13.0 0.00 0.00 0.00 69
20260508020729 39 13 11.0 14.0 0.00 0.00 0.00 68
20260508014728 40 6 12.0 15.0 0.00 0.00 0.00 66
20260508012728 40 4 11.0 16.0 0.00 0.00 0.00 68
20260508010728 41 359 12.0 17.0 0.00 0.00 0.00 65
20260508004728 42 355 14.0 18.0 0.00 0.00 0.00 63
20260508002728 42 354 14.0 17.0 0.00 0.00 0.00 64
20260508000729 43 346 17.0 20.0 0.00 0.00 0.00 63
20260507234729 43 347 17.0 21.0 0.00 0.00 0.00 63
20260507232728 44 352 17.0 20.0 0.00 0.00 0.00 57
20260507230728 44 349 17.0 20.0 0.00 0.00 0.00 60
20260507224727 43 347 15.0 18.0 0.00 0.00 0.00 64
20260507222728 44 346 15.0 18.0 0.00 0.00 0.00 60
20260507220728 44 342 16.0 17.0 0.00 0.00 0.00 64
20260507214728 44 336 17.0 18.0 0.00 0.00 0.00 62
20260507210727 44 338 17.0 19.0 0.00 0.00 0.00 65
20260507204728 44 338 17.0 19.0 0.00 0.00 0.00 68
20260507202727 44 340 19.0 22.0 0.00 0.00 0.00 62
20260507200728 42 317 12.0 15.0 0.00 0.00 0.00 84
20260507194727 43 280 9.0 9.0 0.00 0.00 0.00 78
20260507192727 44 260 10.0 11.0 0.00 0.00 0.00 70
20260507190727 45 231 10.0 12.0 0.00 0.00 0.00 57
20260507184727 45 240 13.0 15.0 0.00 0.00 0.00 61
20260507182726 45 244 12.0 15.0 0.00 0.00 0.00 67
20260507180726 45 246 14.0 17.0 0.00 0.00 0.00 68
20260507174727 45 250 14.0 15.0 0.00 0.00 0.00 70
20260507172726 46 247 11.0 15.0 0.00 0.00 0.00 66
20260507170726 47 247 12.0 15.0 0.00 0.00 0.00 61
20260507164727 47 250 14.0 16.0 0.00 0.00 0.00 61
20260507162727 47 253 12.0 14.0 0.00 0.00 0.00 59
20260507160727 48 249 10.0 13.0 0.00 0.00 0.00 61
20260507154726 48 233 8.0 10.0 0.00 0.00 0.00 61
20260507152726 47 226 8.0 10.0 0.00 0.00 0.00 65
20260507150727 48 228 8.0 10.0 0.00 0.00 0.00 60
20260507142727 48 243 9.0 11.0 0.00 0.00 0.00 57
20260507140726 49 244 6.0 9.0 0.00 0.00 0.00 47
20260507134726 51 225 5.0 7.0 0.00 0.00 0.00 35
20260507132726 51 231 5.0 7.0 0.00 0.00 0.00 39
20260507130726 49 252 6.0 7.0 0.00 0.00 0.00 41
20260507124726 52 235 4.0 7.0 0.00 0.00 0.00 41
20260507122725 52 166 3.0 5.0 0.00 0.00 0.00 34
20260507120726 48 160 4.0 6.0 0.00 0.00 0.00 62
20260507114726 48 150 5.0 8.0 0.00 0.00 0.00 72
20260507112725 49 141 7.0 10.0 0.00 0.00 0.00 70
20260507110725 47 131 5.0 7.0 0.00 0.00 0.00 66